Weather History for KSMF - November, 2012

Change the Weather History Date:

Tuesday, November 27, 2012

  Actual Average Record
Temperature  
Mean Temperature 50 °F -  
Max Temperature 60 °F 57 °F 70 °F (1958)
Min Temperature 41 °F 40 °F 30 °F (1948)
Degree Days  
Heating Degree Days 14    
Moisture  
Dew Point 46 °F    
Average Humidity 94    
Maximum Humidity 100    
Minimum Humidity 69    
Precipitation  
Precipitation 0.01 in - - ()
Sea Level Pressure  
Sea Level Pressure 30.08 in    
Wind  
Wind Speed 2 mph (NNE)    
Max Wind Speed 6 mph    
Max Gust Speed -    
Visibility 4 miles    
Events Fog    
Averages and records for this station are not official NWS values.
T = Trace of Precipitation, MM = Missing Value Source: NWS Daily Summary

Daily Weather History Graph

Daily Weather History Graph

Search for Another Location

Airport or City:

Trip Planner

Search our weather history database for the weather conditions in past years. The results will help you decide how hot, cold, wet, or windy it might be!

Date:

Astronomy

Nov. 27, 2012 Rise Set
Actual Time 7:02 AM PST 4:46 PM PST
Civil Twilight 6:32 AM PST 5:15 PM PST
Nautical Twilight 6:00 AM PST 5:48 PM PST
Astronomical Twilight 5:28 AM PST 6:20 PM PST
Moon 4:21 PM PST (11/27) 6:12 AM PST (11/27)
Length of Visible Light 10h 42m
Length of Day
9h 44m
Waxing Gibbous, 99% of the Moon is Illuminated
Nov 27
Waxing Gibbous
Nov 28
Full
Dec 6
Last Quarter
Dec 13
New
Dec 19
First Quarter

Hourly Weather History & Observations

Time (PST) Temp. Windchill Dew Point Humidity Pressure Visibility Wind Dir Wind Speed Gust Speed Precip Events Conditions
12:10 AM 44.6 °F 43.1 °F 44.6 °F 100% 30.08 in 1.0 mi NNE 3.5 mph - N/A Fog Scattered Clouds
12:31 AM 42.8 °F 41.1 °F 42.8 °F 100% 30.08 in 0.2 mi NNE 3.5 mph - N/A Fog Fog
12:53 AM 44.1 °F 41.5 °F 43.0 °F 96% 30.07 in 0.2 mi NNE 4.6 mph - N/A Fog Fog
1:53 AM 42.1 °F - 41.0 °F 96% 30.07 in 3.0 mi Calm Calm - 0.01 in   Scattered Clouds
2:53 AM 42.1 °F 39.2 °F 41.0 °F 96% 30.07 in 0.5 mi West 4.6 mph - N/A Fog Fog
3:53 AM 42.1 °F - 42.1 °F 100% 30.06 in 0.8 mi Calm Calm - N/A   Mostly Cloudy
4:53 AM 42.1 °F - 41.0 °F 96% 30.07 in 0.2 mi Calm Calm - N/A Fog Fog
5:53 AM 41.0 °F - 41.0 °F 100% 30.07 in 0.2 mi Calm Calm - N/A Fog Fog
5:55 AM 41.0 °F - 41.0 °F 100% 30.08 in 0.5 mi Calm Calm - N/A Fog Fog
6:49 AM 41.0 °F 37.1 °F 41.0 °F 100% 30.11 in 0.2 mi SW 5.8 mph - N/A Fog Fog
6:53 AM 41.0 °F 38.0 °F 41.0 °F 100% 30.11 in 0.2 mi SW 4.6 mph - N/A Fog Fog
7:05 AM 42.8 °F - 42.8 °F 100% 30.10 in 0.1 mi Calm Calm - N/A Fog Fog
7:53 AM 44.1 °F 42.5 °F 44.1 °F 100% 30.11 in 0.1 mi SSW 3.5 mph - N/A Fog Fog
8:53 AM 46.9 °F - 46.0 °F 97% 30.12 in 0.1 mi Calm Calm - N/A Fog Fog
9:53 AM 48.0 °F - 46.9 °F 96% 30.13 in 0.1 mi SW 3.5 mph - N/A Fog Fog
10:11 AM 48.2 °F - 48.2 °F 100% 30.13 in 0.2 mi Calm Calm - N/A Fog Fog
10:22 AM 48.2 °F - 48.2 °F 100% 30.13 in 0.8 mi Calm Calm - N/A   Overcast
10:46 AM 50.0 °F - 48.2 °F 94% 30.12 in 2.0 mi Calm Calm - N/A   Mostly Cloudy
10:53 AM 50.0 °F - 48.9 °F 96% 30.12 in 2.0 mi East 3.5 mph - N/A   Mostly Cloudy
11:21 AM 51.8 °F - 48.2 °F 88% 30.11 in - Calm Calm - N/A   Scattered Clouds
11:25 AM 51.8 °F - 48.2 °F 88% 30.11 in 2.5 mi Calm Calm - N/A   Scattered Clouds
11:41 AM 51.8 °F - 50.0 °F 94% 30.10 in 3.0 mi Calm Calm - N/A   Scattered Clouds
11:53 AM 52.0 °F - 48.9 °F 89% 30.10 in 3.0 mi Calm Calm - N/A   Scattered Clouds
12:53 PM 55.0 °F - 51.1 °F 86% 30.07 in 3.0 mi Calm Calm - N/A   Scattered Clouds
1:53 PM 57.9 °F - 51.1 °F 78% 30.05 in 8.0 mi Calm Calm - N/A   Partly Cloudy
2:53 PM 60.1 °F - 50.0 °F 69% 30.04 in 9.0 mi Calm Calm - N/A   Partly Cloudy
3:53 PM 59.0 °F - 51.1 °F 75% 30.03 in 10.0 mi NE 4.6 mph - N/A   Clear
4:53 PM 54.0 °F - 50.0 °F 86% 30.03 in 10.0 mi NNE 3.5 mph - N/A   Clear
5:53 PM 53.1 °F - 50.0 °F 89% 30.02 in 10.0 mi East 3.5 mph - N/A   Clear
6:53 PM 52.0 °F - 50.0 °F 93% 30.02 in 10.0 mi Calm Calm - N/A   Clear
7:53 PM 50.0 °F - 48.9 °F 96% 30.01 in 10.0 mi Calm Calm - N/A   Clear
8:53 PM 50.0 °F - 48.0 °F 93% 30.02 in 10.0 mi Calm Calm - N/A   Clear
9:53 PM 48.0 °F - 46.9 °F 96% 30.03 in 10.0 mi Calm Calm - N/A   Clear
10:53 PM 50.0 °F - 48.0 °F 93% 30.03 in 9.0 mi Calm Calm - N/A   Clear
11:53 PM 48.9 °F - 48.0 °F 97% 30.03 in 7.0 mi Calm Calm - N/A   Clear